Wind_Speed
6 4 5 5 4 5 5 5 5 4 3 3 3 3 3 4 4 3 2 2 3 3 3 2 2 2 3 3 4 4 4 3 2 2 2 2 2 1 1 1 1 1 2 2 2 2 2 2 1
8 8 8 8 7 7 9 8 7 5 5 4 3 3 4 4 4 3 3 2 2 2 2 3 3 4 4 5 5 5 5 5 4 4 4 4 4 4 4 4 4 4 4 5 5 5 5 4 4
11 11 11 11 11 11 11 10 9 8 6 5 3 3 3 3 3 3 3 3 2 3 3 4 5 5 6 6 6 6 6 6 6 6 6 6 6 6 6 6 6 6 6 7 7 7 7 6 6
13 14 14 14 15 14 13 12 11 10 8 7 5 4 3 3 3 3 3 3 3 4 5 6 6 7 7 8 8 8 8 8 8 8 8 8 8 8 8 8 8 8 8 8 8 9 9 8 8
15 16 17 18 18 17 15 14 13 12 11 9 8 6 5 4 4 4 4 4 4 6 7 7 8 9 9 9 9 10 10 10 10 9 10 10 10 10 10 10 10 10 10 10 10 10 10 10 10
18 18 19 20 22 20 18 17 16 15 14 12 11 9 7 5 5 5 5 5 6 7 9 9 10 11 11 11 11 12 12 12 12 12 12 11 11 11 11 11 12 11 11 11 11 12 12 12 12
20 21 22 23 24 23 21 19 18 17 16 15 14 12 9 7 6 7 7 8 9 10 11 12 13 13 13 14 14 14 15 15 15 15 15 15 15 14 14 14 14 14 14 13 13 14 14 14 14
22 23 24 25 26 27 24 22 20 19 19 18 16 14 12 10 9 9 10 11 12 12 13 14 15 16 16 17 17 17 17 18 18 18 19 19 19 18 18 17 16 16 16 16 16 16 16 15 15
24 24 26 28 28 29 27 25 22 21 21 20 19 16 14 14 13 13 14 14 15 15 16 17 17 18 19 19 20 20 20 21 21 21 22 22 23 22 20 20 19 19 20 19 19 19 18 18 17
24 25 28 29 30 30 29 27 24 22 22 22 21 19 18 17 16 17 17 18 18 18 18 19 20 21 21 22 22 23 23 23 24 24 24 24 25 24 23 22 22 22 22 22 22 21 20 20 20
22 24 26 27 28 29 29 28 26 24 24 22 21 20 20 19 19 20 20 21 21 20 20 20 21 22 23 24 24 25 25 26 26 26 27 28 26 25 26 25 24 24 24 24 23 24 22 21 22
17 20 22 25 26 26 27 27 26 25 25 24 23 22 22 21 22 22 22 22 21 20 20 20 21 22 22 23 23 23 25 25 25 26 26 26 27 25 25 25 25 25 25 24 25 26 24 23 23
12 14 17 20 22 23 24 24 24 24 25 25 24 25 25 25 24 23 22 21 21 20 20 20 20 21 21 21 21 21 21 21 22 23 23 23 25 25 24 25 26 26 26 25 25 26 25 25 25
9 10 12 14 16 18 19 20 21 23 23 24 23 24 24 24 23 22 21 22 21 20 19 19 19 19 19 19 19 19 20 20 20 21 22 22 22 23 25 24 26 27 27 27 27 27 27 27 26
9 8 8 9 11 13 14 16 19 21 21 22 22 22 22 22 21 21 20 20 19 18 17 18 19 20 20 18 18 19 19 19 20 20 21 22 23 24 25 25 25 26 27 26 27 27 27 27 27
10 8 7 7 7 9 11 13 15 18 19 21 21 21 21 21 20 19 18 18 17 16 16 17 18 18 18 17 18 18 19 20 20 21 22 22 23 23 24 24 24 25 26 26 27 28 28 29 28
11 8 6 8 6 8 10 13 15 17 19 20 20 20 20 19 18 17 16 15 15 15 15 15 16 16 16 17 17 18 19 21 22 22 22 22 23 23 24 24 25 25 26 26 27 27 28 29 29
7 7 7 8 9 9 11 14 15 16 18 18 19 19 19 18 16 15 14 14 13 13 14 14 14 14 15 16 17 18 20 21 22 22 23 23 23 23 24 25 25 26 26 26 27 28 28 29 29
8 7 8 9 9 10 11 12 12 13 15 18 19 19 16 15 13 12 12 11 11 11 11 12 12 13 15 16 18 20 21 22 23 23 24 24 24 24 24 25 25 26 26 27 27 27 28 29 29
8 7 8 9 9 9 9 10 11 11 13 15 15 15 13 12 11 10 10 9 10 9 10 11 12 14 16 18 20 21 23 24 24 24 24 24 24 24 24 24 25 25 26 27 27 28 28 29 29
8 8 8 9 8 7 7 8 10 10 10 10 10 9 9 9 9 8 8 9 9 10 11 12 15 17 19 21 22 23 24 25 25 25 24 24 24 24 24 24 25 25 26 27 28 28 29 29 30
8 8 8 8 7 7 7 8 10 9 7 6 5 6 6 6 6 6 7 8 9 10 12 14 16 19 20 22 23 23 24 24 24 24 24 23 23 23 23 23 24 25 26 27 28 28 29 30 30
8 8 8 7 6 7 8 8 9 8 7 4 3 2 3 3 4 6 8 9 10 12 14 16 18 20 21 22 22 22 23 23 23 23 23 23 22 22 22 23 24 25 26 27 28 29 29 30 31
7 7 7 7 7 7 7 7 8 8 6 3 2 2 3 4 6 7 9 11 12 14 15 17 19 20 21 21 21 21 22 22 22 22 22 22 23 23 23 24 25 26 27 27 28 29 30 30 31
6 5 7 7 7 8 9 7 7 7 6 4 4 4 6 7 9 10 11 12 14 15 16 18 19 20 20 20 21 21 21 21 22 22 22 23 24 25 25 26 26 27 28 28 29 30 31 32 32
6 4 3 4 5 8 10 9 9 8 7 6 6 7 8 10 11 12 13 13 14 16 17 18 19 19 20 20 21 21 22 22 23 23 24 25 25 26 27 27 28 28 29 30 31 31 32 33 33
7 6 5 5 6 6 8 10 10 10 9 8 8 9 10 12 13 14 14 15 16 17 18 18 19 19 20 21 22 23 23 24 24 25 25 26 27 28 29 29 30 31 31 31 32 32 33 33 34
8 8 7 4 5 5 9 9 9 10 10 10 11 11 12 13 14 14 15 16 17 17 18 19 19 20 21 22 23 24 24 25 26 26 27 28 29 30 30 31 31 32 33 33 33 33 33 34 34
9 9 8 7 6 4 6 9 11 11 11 11 12 12 13 13 14 15 16 16 17 18 18 19 19 21 22 23 24 25 26 27 28 28 29 29 30 31 32 33 34 34 34 34 34 34 34 35 35
10 10 9 8 9 8 7 11 14 13 12 12 12 13 13 14 14 15 16 17 17 18 18 19 20 22 23 25 26 27 28 29 29 30 31 31 32 33 34 35 36 36 36 36 36 36 36 36 36
Wind_Direction
342 314 293 281 282 287 285 292 298 307 313 339 2 20 43 39 38 40 30 27 24 14 9 360 340 306 282 276 278 278 272 262 250 234 220 213 207 204 212 221 243 273 289 297 299 299 303 315 339
324 307 288 282 276 271 277 286 286 292 297 309 329 4 25 27 28 23 1 3 13 359 345 331 315 294 280 276 276 274 269 267 263 258 255 251 252 254 257 262 266 268 270 273 278 281 279 280 281
307 297 289 287 275 266 271 278 277 279 283 288 300 324 351 6 18 5 352 352 352 334 322 315 307 292 281 274 271 270 267 265 263 261 262 264 266 267 267 266 267 269 273 274 276 277 275 273 270
295 290 283 279 272 273 272 273 272 272 275 284 286 298 316 332 345 346 340 339 333 316 307 303 300 287 279 274 270 268 266 267 266 264 264 267 268 268 268 268 268 270 273 275 275 276 275 273 270
286 282 279 276 272 269 269 267 265 266 267 275 277 286 303 323 331 331 325 323 317 307 301 294 292 286 280 274 271 271 271 273 272 270 269 269 268 267 268 270 270 271 273 274 275 274 275 276 273
279 276 269 263 265 266 264 262 259 259 262 266 270 273 290 311 319 319 317 311 307 299 293 286 283 282 277 272 271 274 276 276 276 276 274 272 270 266 265 267 268 269 270 272 273 274 275 275 272
274 270 263 260 261 260 260 259 256 255 259 263 267 278 289 299 308 310 307 306 304 299 291 285 281 278 275 272 272 274 275 276 276 275 274 272 269 266 264 264 265 266 268 270 272 272 273 274 273
271 266 260 256 254 254 256 255 255 254 258 262 264 272 286 297 302 308 308 304 302 299 292 287 282 279 277 275 275 274 274 275 275 274 274 273 271 267 265 265 265 267 267 269 270 271 271 272 273
269 262 256 252 249 250 251 252 254 255 255 257 263 269 283 295 299 305 308 306 303 297 291 287 283 279 278 276 275 273 274 273 275 274 273 274 271 269 267 268 268 268 268 268 269 270 269 270 271
267 259 254 252 250 248 249 249 251 253 255 255 261 271 282 291 300 304 305 304 302 295 289 285 281 279 278 277 275 274 275 276 276 275 273 275 272 269 267 268 271 272 271 269 268 270 271 271 272
269 260 257 253 250 249 247 247 248 249 252 255 262 272 282 290 297 300 301 300 299 293 287 285 281 280 279 280 278 278 275 275 277 279 280 277 274 270 268 270 272 272 272 271 271 272 272 274 275
273 264 259 256 252 249 247 247 247 249 254 259 265 273 282 288 292 296 297 298 295 289 286 283 282 281 281 282 282 281 279 280 279 282 286 283 277 276 273 273 272 272 275 275 276 274 274 275 275
285 271 264 261 256 251 248 246 247 250 254 260 267 274 281 287 289 292 293 293 290 286 283 282 281 281 282 285 290 290 288 292 290 288 291 288 283 281 280 276 274 275 276 278 277 275 277 277 275
314 294 275 266 260 253 249 248 249 251 255 260 266 273 279 284 287 289 288 289 286 283 283 284 284 286 287 291 294 296 295 295 295 295 293 290 289 286 282 284 278 275 277 279 277 276 276 277 274
343 328 304 281 265 256 251 251 250 252 255 261 266 271 276 280 282 284 285 286 284 282 285 287 287 290 294 295 297 299 299 297 298 297 296 293 291 288 285 285 282 277 277 278 278 277 276 275 273
0 356 337 306 278 263 256 254 253 255 259 263 266 270 274 274 276 280 283 284 284 287 290 290 292 294 295 298 300 300 300 299 299 298 297 295 293 290 286 285 285 281 279 277 276 276 274 273 272
360 349 323 310 294 275 265 258 257 257 258 260 264 268 271 271 273 277 281 282 284 289 292 293 295 298 299 300 301 302 302 302 301 300 299 297 296 294 290 287 286 283 281 279 277 276 274 272 271
331 331 326 310 302 290 281 273 269 263 260 261 262 263 268 267 268 273 277 281 283 289 294 296 300 304 307 307 306 306 305 304 302 301 300 298 296 293 290 288 286 283 281 279 277 276 274 273 270
343 334 323 317 311 298 290 285 281 271 266 262 262 264 263 261 264 271 275 280 285 294 300 304 308 311 311 309 307 306 307 307 306 305 303 300 297 295 292 289 287 284 282 280 278 277 275 272 270
350 340 329 326 325 313 303 297 295 286 278 271 265 259 255 258 264 271 277 285 292 301 307 312 314 314 314 312 312 311 311 310 309 308 306 303 301 298 295 293 289 286 284 281 279 277 275 273 270
342 339 334 331 328 328 325 320 307 299 291 277 263 251 250 260 266 273 288 297 303 309 313 316 318 317 316 315 314 313 312 311 310 309 308 306 303 300 298 295 292 289 286 284 281 279 276 274 271
332 326 326 330 343 345 338 331 321 315 307 294 268 246 250 269 280 292 303 309 314 316 318 319 318 318 316 315 314 314 313 312 311 311 310 309 307 305 303 300 296 293 291 288 284 281 279 276 273
319 322 326 325 331 337 335 341 337 335 331 311 290 263 267 280 302 310 314 317 319 319 319 319 318 317 316 315 314 314 313 312 311 311 310 310 309 308 306 304 301 298 295 292 288 284 281 279 276
316 321 328 332 339 329 322 337 339 342 351 357 358 342 329 327 329 324 322 320 320 320 318 316 317 316 315 315 315 315 314 313 312 311 310 310 310 309 308 306 304 301 298 294 291 288 284 281 278
315 337 353 347 337 309 306 316 319 331 339 340 338 330 328 330 329 324 320 318 317 316 314 314 316 316 316 316 316 316 316 315 314 314 313 312 311 310 309 308 305 303 300 296 293 290 286 283 280
304 318 316 313 307 307 307 305 309 318 323 323 323 324 326 325 322 319 316 315 313 312 313 314 316 316 317 317 318 317 317 316 316 315 313 312 312 311 310 308 306 303 301 298 295 292 288 284 281
283 287 292 313 320 326 306 303 304 313 319 320 320 319 319 318 316 314 313 312 310 310 312 313 314 316 317 318 320 320 319 318 317 315 314 313 313 312 310 309 308 305 302 300 297 293 290 286 283
273 277 288 298 298 311 313 311 304 305 310 310 311 313 313 312 310 308 306 306 306 307 309 311 313 316 318 319 322 323 323 322 320 318 316 315 314 313 312 311 309 307 304 301 298 295 292 288 284
275 275 279 280 277 284 299 296 291 299 300 300 301 304 305 304 302 301 302 303 303 305 307 311 314 317 320 322 323 324 324 323 322 321 320 319 317 316 314 312 310 308 305 302 299 296 293 290 285
272 272 277 278 282 283 288 293 289 293 294 296 298 300 300 299 299 299 300 301 302 305 309 312 316 319 322 324 325 325 325 325 324 323 322 320 319 317 315 313 311 308 306 303 300 296 293 289 285
Height
5929 5928 5928 5928 5929 5930 5929 5928 5927 5926 5925 5924 5922 5921 5921 5920 5921 5923 5920 5918 5918 5917 5917 5917 5917 5917 5917 5916 5915 5915 5914 5914 5913 5913 5913 5912 5912 5912 5912 5911 5911 5911 5911 5910 5910 5909 5909 5909 5908
5928 5927 5927 5928 5928 5929 5928 5927 5926 5925 5924 5923 5921 5920 5919 5919 5919 5918 5917 5917 5916 5916 5916 5916 5916 5916 5916 5915 5915 5914 5914 5913 5913 5912 5912 5911 5911 5911 5910 5910 5910 5910 5910 5909 5909 5909 5908 5908 5908
5926 5925 5926 5926 5926 5926 5926 5925 5924 5923 5923 5921 5920 5919 5919 5918 5917 5917 5916 5916 5915 5915 5915 5915 5914 5914 5914 5914 5914 5913 5913 5912 5911 5911 5911 5910 5910 5909 5909 5909 5909 5909 5908 5908 5908 5907 5907 5907 5907
5925 5924 5924 5924 5922 5923 5923 5923 5922 5921 5921 5920 5919 5918 5917 5917 5916 5916 5915 5915 5914 5914 5913 5913 5913 5913 5913 5912 5912 5912 5911 5911 5910 5909 5909 5908 5908 5908 5907 5907 5907 5907 5906 5906 5906 5906 5905 5905 5905
5921 5921 5921 5920 5919 5919 5919 5920 5920 5919 5919 5918 5918 5917 5916 5915 5915 5915 5914 5913 5913 5913 5912 5912 5911 5911 5911 5910 5910 5910 5909 5909 5908 5908 5907 5907 5906 5906 5905 5905 5905 5905 5904 5904 5904 5903 5903 5903 5902
5918 5918 5918 5917 5914 5915 5916 5916 5917 5917 5917 5916 5916 5914 5914 5914 5913 5913 5913 5912 5912 5911 5911 5910 5910 5909 5909 5908 5908 5907 5907 5906 5906 5905 5905 5904 5904 5903 5903 5902 5902 5902 5902 5902 5901 5901 5900 5900 5900
5914 5913 5912 5911 5910 5910 5912 5913 5914 5914 5914 5914 5913 5912 5912 5912 5912 5912 5911 5911 5910 5910 5909 5908 5907 5907 5906 5906 5905 5905 5904 5903 5903 5902 5902 5901 5900 5900 5899 5899 5898 5898 5898 5898 5898 5898 5897 5897 5896
5908 5908 5907 5906 5906 5906 5907 5909 5910 5911 5911 5912 5911 5911 5910 5910 5910 5910 5910 5909 5908 5907 5907 5906 5905 5904 5903 5903 5902 5901 5901 5900 5899 5898 5898 5897 5896 5895 5895 5894 5894 5894 5894 5894 5894 5894 5893 5893 5893
5901 5903 5901 5901 5901 5901 5902 5904 5906 5907 5908 5908 5909 5909 5909 5908 5908 5908 5908 5907 5906 5905 5904 5903 5902 5901 5900 5899 5899 5898 5897 5896 5895 5894 5893 5892 5891 5890 5890 5890 5890 5890 5889 5889 5889 5889 5889 5889 5888
5895 5896 5895 5894 5895 5896 5898 5900 5902 5904 5905 5905 5905 5906 5906 5906 5906 5905 5905 5904 5903 5902 5901 5900 5899 5898 5897 5896 5895 5894 5893 5892 5890 5889 5888 5888 5886 5885 5885 5885 5885 5884 5884 5883 5883 5883 5883 5883 5883
5888 5889 5888 5888 5890 5891 5893 5896 5898 5900 5901 5901 5902 5902 5903 5903 5902 5902 5902 5901 5899 5898 5897 5896 5895 5894 5893 5892 5891 5889 5888 5887 5885 5884 5883 5882 5881 5880 5879 5879 5879 5878 5878 5877 5877 5878 5878 5878 5878
5883 5883 5883 5883 5885 5887 5889 5892 5894 5896 5897 5897 5897 5899 5899 5899 5899 5899 5898 5897 5896 5894 5893 5892 5891 5890 5889 5888 5886 5885 5883 5882 5881 5879 5877 5876 5875 5874 5874 5873 5872 5872 5872 5871 5871 5871 5871 5872 5872
5878 5879 5879 5879 5881 5883 5885 5888 5890 5891 5893 5893 5894 5895 5895 5895 5895 5894 5893 5892 5891 5890 5889 5888 5887 5886 5885 5883 5882 5880 5879 5877 5876 5874 5872 5870 5869 5869 5868 5868 5867 5866 5865 5865 5865 5865 5866 5866 5866
5876 5876 5876 5877 5878 5880 5882 5884 5886 5887 5889 5890 5890 5891 5891 5891 5890 5890 5889 5888 5887 5886 5885 5884 5883 5882 5881 5879 5878 5876 5875 5873 5872 5870 5868 5866 5865 5864 5863 5862 5861 5860 5860 5859 5859 5859 5859 5860 5859
5874 5874 5875 5875 5876 5877 5879 5881 5882 5883 5884 5885 5886 5886 5886 5886 5886 5885 5884 5883 5882 5881 5881 5880 5879 5878 5877 5875 5874 5872 5870 5869 5867 5866 5864 5862 5860 5859 5857 5856 5855 5854 5854 5853 5853 5852 5852 5852 5852
5874 5874 5875 5875 5874 5875 5878 5879 5878 5879 5880 5881 5881 5881 5881 5881 5881 5881 5880 5879 5878 5877 5877 5876 5875 5874 5873 5871 5870 5868 5867 5865 5863 5861 5859 5857 5855 5853 5851 5850 5849 5848 5847 5847 5846 5846 5845 5845 5845
5875 5876 5876 5875 5873 5874 5875 5874 5874 5875 5876 5876 5876 5876 5877 5877 5877 5877 5876 5876 5875 5874 5873 5873 5872 5870 5869 5867 5866 5864 5862 5860 5858 5855 5853 5851 5849 5847 5845 5844 5843 5841 5841 5840 5839 5839 5838 5838 5838
5878 5877 5875 5874 5872 5872 5872 5871 5870 5870 5871 5871 5871 5872 5872 5872 5873 5873 5873 5873 5872 5871 5870 5869 5868 5867 5865 5863 5862 5860 5858 5855 5853 5850 5847 5845 5843 5841 5839 5838 5836 5835 5834 5833 5832 5831 5831 5830 5830
5876 5874 5874 5872 5871 5870 5868 5867 5866 5866 5866 5866 5866 5867 5868 5868 5869 5869 5870 5870 5869 5868 5867 5866 5865 5863 5861 5859 5857 5855 5853 5850 5847 5844 5841 5839 5837 5835 5833 5831 5830 5828 5827 5826 5825 5824 5823 5823 5823
5875 5874 5873 5871 5869 5868 5866 5865 5863 5862 5862 5861 5861 5862 5864 5865 5865 5866 5867 5867 5866 5865 5864 5863 5862 5860 5858 5855 5853 5850 5847 5844 5841 5838 5836 5833 5831 5828 5826 5825 5823 5821 5820 5819 5818 5817 5816 5815 5815
5875 5874 5872 5870 5868 5867 5865 5864 5862 5861 5859 5858 5858 5859 5861 5861 5862 5863 5864 5863 5863 5862 5861 5860 5858 5856 5853 5851 5848 5845 5842 5839 5836 5833 5830 5827 5825 5823 5820 5818 5816 5814 5813 5811 5810 5809 5808 5807 5807
5875 5873 5871 5869 5868 5867 5866 5865 5862 5859 5858 5857 5857 5858 5859 5860 5861 5861 5861 5861 5860 5859 5858 5856 5854 5852 5849 5846 5843 5840 5837 5834 5831 5827 5825 5822 5819 5817 5814 5812 5810 5808 5805 5804 5802 5801 5799 5799 5798
5873 5872 5870 5869 5868 5867 5866 5865 5863 5859 5857 5857 5857 5858 5858 5859 5859 5859 5859 5858 5858 5856 5854 5853 5850 5848 5845 5842 5839 5836 5833 5829 5826 5823 5820 5817 5814 5811 5809 5806 5803 5801 5798 5796 5794 5792 5791 5790 5789
5872 5871 5870 5869 5868 5868 5866 5865 5864 5860 5858 5857 5857 5858 5858 5858 5858 5857 5857 5856 5855 5853 5851 5849 5847 5845 5842 5839 5836 5832 5829 5825 5822 5819 5816 5812 5809 5806 5803 5800 5797 5794 5791 5789 5786 5784 5782 5781 5780
5871 5872 5873 5872 5871 5868 5865 5864 5863 5860 5858 5858 5857 5857 5857 5856 5856 5855 5854 5853 5852 5850 5849 5847 5844 5841 5838 5835 5832 5828 5825 5821 5818 5814 5811 5807 5803 5800 5797 5794 5790 5787 5784 5781 5778 5776 5774 5772 5770
5870 5871 5872 5872 5871 5868 5864 5863 5862 5859 5858 5857 5857 5856 5855 5855 5854 5853 5852 5850 5849 5847 5845 5843 5841 5838 5835 5831 5828 5824 5820 5817 5813 5809 5805 5801 5797 5794 5790 5786 5783 5779 5776 5773 5770 5767 5764 5762 5760
5869 5869 5869 5869 5868 5867 5865 5862 5860 5858 5857 5856 5855 5855 5854 5853 5851 5850 5849 5847 5846 5844 5842 5840 5837 5834 5831 5827 5824 5820 5815 5811 5807 5803 5799 5795 5791 5787 5783 5779 5775 5771 5767 5764 5760 5757 5755 5752 5750
5867 5867 5866 5867 5867 5867 5865 5862 5860 5858 5856 5855 5854 5853 5852 5850 5849 5848 5846 5845 5843 5841 5839 5836 5834 5830 5827 5823 5819 5814 5810 5806 5802 5797 5793 5788 5784 5780 5775 5771 5766 5762 5758 5754 5751 5747 5744 5742 5739
5865 5865 5864 5865 5864 5864 5865 5865 5858 5857 5855 5854 5853 5851 5850 5848 5847 5845 5844 5842 5840 5838 5835 5833 5830 5826 5822 5818 5814 5809 5805 5800 5796 5791 5786 5781 5776 5772 5767 5762 5757 5753 5749 5744 5741 5737 5734 5731 5728
5862 5862 5861 5862 5862 5860 5861 5864 5855 5854 5853 5852 5850 5849 5848 5846 5844 5843 5841 5839 5837 5834 5831 5829 5825 5821 5817 5813 5808 5804 5799 5794 5789 5784 5779 5774 5769 5764 5758 5753 5748 5743 5739 5734 5730 5726 5723 5720 5717